{"data":{"norad_id":69005,"epoch":"2026-05-25T04:30:39.539232Z","epoch_age_seconds":61834,"freshness":"FRESH","line1":"1 69005U 26100AB  26145.18795763  .00002828  00000+0  13385-3 0  9995","line2":"2 69005  97.4060  43.4156 0007055  96.7759 263.4279 15.20141276  3321","mean_motion":15.20141276,"eccentricity":0.0007055,"inclination_deg":97.406,"raan_deg":43.4156,"arg_perigee_deg":96.7759,"mean_anomaly_deg":263.4279,"bstar":0.00013385,"rev_number":332,"period_min":94.728037632734,"perigee_km":500.557748489,"apogee_km":510.27043908233,"semimajor_km":6883.5510937857,"source":"CELESTRAK","updated_at":"2026-05-25T13:38:09.038019Z"}}